CW3518 Weather Reports


Display with metric or nautical units.
time (UTC)temp
F
wind
direction
speed
MPH
gust
MPH
rain 1hr
in
rain 24hr
in
rain mn
in
humidity
%
barometer
mb
20260505183000 85 236 12.0 21.0 0.00 0.00 0.00 54 1004.8
20260505182000 84 244 19.0 22.0 0.00 0.00 0.00 55 1004.9
20260505181459 84 240 17.0 19.0 0.00 0.00 0.00 54 1004.9
20260505181001 84 238 14.0 21.0 0.00 0.00 0.00 56 1004.9
20260505175959 83 251 17.0 22.0 0.00 0.00 0.00 56 1004.9
20260505175500 83 225 18.0 24.0 0.00 0.00 0.00 56 1004.9
20260505175000 83 214 13.0 24.0 0.00 0.00 0.00 60 1005.0
20260505174459 83 230 14.0 21.0 0.00 0.00 0.00 64 1005.0
20260505173459 83 218 14.0 19.0 0.00 0.00 0.00 65 1005.1
20260505173000 81 213 19.0 23.0 0.00 0.00 0.00 65 1004.9
20260505172000 81 230 14.0 23.0 0.00 0.00 0.00 66 1004.8
20260505170459 79 198 11.0 18.0 0.00 0.00 0.00 71 1004.8
20260505170030 79 192 7.0 20.0 0.00 0.00 0.00 71 1004.9
20260505165459 78 186 9.0 20.0 0.00 0.00 0.00 72 1004.9
20260505164959 78 191 7.0 18.0 0.00 0.00 0.00 74 1005.0
20260505164459 77 213 12.0 18.0 0.00 0.00 0.00 74 1004.9
20260505163959 77 205 11.0 18.0 0.00 0.00 0.00 74 1004.8
20260505163459 76 207 15.0 15.0 0.00 0.00 0.00 74 1004.7
20260505162959 76 198 13.0 15.0 0.00 0.00 0.00 75 1004.7
20260505162530 76 185 10.0 16.0 0.00 0.00 0.00 76 1004.7
20260505161529 76 210 9.0 16.0 0.00 0.00 0.00 76 1004.6
20260505161005 76 212 11.0 18.0 0.00 0.00 0.00 77 1004.8
20260505160529 76 207 11.0 18.0 0.00 0.00 0.00 76 1004.7
20260505152959 75 222 13.0 25.0 0.00 0.00 0.00 76 1004.4
20260505152501 75 213 13.0 25.0 0.00 0.00 0.00 76 1004.4
20260505151501 75 196 13.0 17.0 0.00 0.00 0.00 76 1004.2
20260505150959 75 224 17.0 17.0 0.00 0.00 0.00 76 1004.2
20260505150459 75 211 12.0 21.0 0.00 0.00 0.00 78 1004.3
20260505140459 72 205 11.0 16.0 0.00 0.00 0.00 83 1004.1
20260505125000 69 190 9.0 11.0 0.00 0.00 0.00 90 1004.1
20260505124459 69 188 9.0 11.0 0.00 0.00 0.00 90 1004.1
20260505123500 69 194 8.0 11.0 0.00 0.00 0.00 91 1004.0
20260505122459 69 186 7.0 12.0 0.00 0.00 0.00 92 1003.7
20260505121500 68 192 8.0 14.0 0.00 0.00 0.00 92 1003.4
20260505121001 68 199 10.0 14.0 0.00 0.00 0.00 92 1003.3
20260505120501 68 193 10.0 15.0 0.00 0.00 0.00 92 1003.3
20260505120031 68 198 9.0 15.0 0.00 0.00 0.00 92 1003.3
20260505115531 68 182 9.0 13.0 0.00 0.00 0.00 92 1003.4
20260505115001 68 192 9.0 13.0 0.00 0.00 0.00 92 1003.4
20260505114500 68 212 13.0 14.0 0.00 0.00 0.00 92 1003.4
20260505114000 68 193 10.0 14.0 0.00 0.00 0.00 92 1003.3
20260505113530 68 199 7.0 12.0 0.00 0.00 0.00 92 1003.3
20260505112459 68 200 11.0 13.0 0.00 0.00 0.00 92 1003.3
20260505111959 68 190 7.0 14.0 0.00 0.00 0.00 92 1003.4
20260505111459 68 204 10.0 14.0 0.00 0.00 0.00 92 1003.4
20260505111000 68 208 14.0 14.0 0.00 0.00 0.00 92 1003.3
20260505110500 68 203 11.0 13.0 0.00 0.00 0.00 92 1003.4
20260505102000 69 207 13.0 19.0 0.00 0.00 0.00 89 1003.3
20260505101500 69 208 16.0 19.0 0.00 0.00 0.00 89 1003.3
20260505101000 69 208 9.0 17.0 0.00 0.00 0.00 89 1003.4
20260505095500 69 194 12.0 17.0 0.00 0.00 0.00 88 1003.4
20260505094459 69 195 12.0 18.0 0.00 0.00 0.00 88 1003.4
20260505094000 70 201 9.0 18.0 0.00 0.00 0.00 87 1003.5
20260505092500 70 185 12.0 15.0 0.00 0.00 0.00 86 1003.2
20260505092000 70 196 10.0 15.0 0.00 0.00 0.00 86 1003.3
20260505091500 70 179 11.0 16.0 0.00 0.00 0.00 85 1003.3
20260505091000 70 194 14.0 19.0 0.00 0.00 0.00 85 1003.4
20260505090500 70 207 16.0 19.0 0.00 0.00 0.00 84 1003.5
20260505090000 70 198 10.0 18.0 0.00 0.00 0.00 84 1003.6
20260505085500 71 209 16.0 18.0 0.00 0.00 0.00 83 1003.5
20260505085000 71 195 13.0 18.0 0.00 0.00 0.00 83 1003.5
20260505084530 71 201 13.0 18.0 0.00 0.00 0.00 83 1003.4
20260505084000 71 189 12.0 18.0 0.00 0.00 0.00 82 1003.5
20260505083500 71 197 12.0 20.0 0.00 0.00 0.00 81 1003.6
20260505083000 71 186 14.0 21.0 0.00 0.00 0.00 81 1003.4
20260505082500 71 211 20.0 21.0 0.00 0.00 0.00 80 1003.4
20260505082000 71 195 14.0 20.0 0.00 0.00 0.00 80 1003.5
20260505081500 71 195 11.0 20.0 0.00 0.00 0.00 80 1003.6
20260505081000 71 207 12.0 20.0 0.00 0.00 0.00 80 1003.6
20260505080500 72 198 11.0 20.0 0.00 0.00 0.00 79 1003.5
20260505080000 71 202 15.0 16.0 0.00 0.00 0.00 79 1003.5
20260505075500 72 181 13.0 18.0 0.00 0.00 0.00 79 1003.5
20260505074500 72 201 14.0 17.0 0.00 0.00 0.00 78 1003.8
20260505074000 72 208 12.0 16.0 0.00 0.00 0.00 78 1003.9
20260505073500 72 185 10.0 16.0 0.00 0.00 0.00 78 1004.0
20260505073000 72 199 11.0 15.0 0.00 0.00 0.00 78 1004.1
20260505072500 72 202 13.0 16.0 0.00 0.00 0.00 77 1004.2
20260505072000 73 187 9.0 18.0 0.00 0.00 0.00 77 1004.5
20260505071500 73 195 13.0 19.0 0.00 0.00 0.00 76 1004.5
20260505071000 73 207 15.0 19.0 0.00 0.00 0.00 76 1004.6
20260505070000 73 209 15.0 18.0 0.00 0.00 0.00 75 1004.6
20260505065500 73 203 13.0 18.0 0.00 0.00 0.00 75 1004.7
20260505065000 73 203 17.0 20.0 0.00 0.00 0.00 74 1004.6
20260505064500 73 200 12.0 20.0 0.00 0.00 0.00 74 1004.7
20260505064000 73 193 13.0 18.0 0.00 0.00 0.00 74 1004.7
20260505063500 74 195 13.0 18.0 0.00 0.00 0.00 74 1004.8
20260505063000 74 196 17.0 19.0 0.00 0.00 0.00 73 1004.7
20260505062500 74 208 14.0 21.0 0.00 0.00 0.00 73 1004.7
20260505062000 74 199 11.0 21.0 0.00 0.00 0.00 73 1004.7
20260505061500 74 197 16.0 18.0 0.00 0.00 0.00 72 1004.8
20260505060500 74 189 15.0 26.0 0.00 0.00 0.00 72 1004.9
20260505060000 75 194 17.0 26.0 0.00 0.00 0.00 71 1005.0
20260505055500 75 205 15.0 17.0 0.00 0.00 0.00 71 1005.1
20260505055000 75 176 13.0 19.0 0.00 0.00 0.00 72 1005.0
20260505054000 75 190 18.0 19.0 0.00 0.00 0.00 71 1004.9
20260505053000 75 196 9.0 19.0 0.00 0.00 0.00 72 1005.0
20260505052000 75 181 12.0 18.0 0.00 0.00 0.00 72 1005.0
20260505051530 74 175 14.0 16.0 0.00 0.00 0.00 73 1005.0
20260505051001 74 192 16.0 16.0 0.00 0.00 0.00 73 1005.0
20260505050500 74 175 14.0 14.0 0.00 0.00 0.00 74 1005.1
20260505041500 73 170 10.0 18.0 0.00 0.00 0.00 75 1005.4
20260505040000 73 165 11.0 14.0 0.00 0.00 0.00 75 1005.4
20260505035500 73 169 11.0 13.0 0.00 0.00 0.00 75 1005.4
20260505035000 73 180 8.0 14.0 0.00 0.00 0.00 75 1005.4
20260505034500 73 165 9.0 15.0 0.00 0.00 0.00 74 1005.5
20260505033500 74 177 13.0 17.0 0.00 0.00 0.00 74 1005.3
20260505033000 74 166 13.0 18.0 0.00 0.00 0.00 73 1005.3
20260505032531 74 183 11.0 20.0 0.00 0.00 0.00 73 1005.2
20260505032000 74 160 12.0 20.0 0.00 0.00 0.00 73 1005.2
20260505031502 74 154 16.0 19.0 0.00 0.00 0.00 73 1005.2
20260505031000 73 166 10.0 17.0 0.00 0.00 0.00 74 1005.2
20260505030500 73 0 0.0 17.0 0.00 0.00 0.00 74 1005.4
20260505025500 73 158 13.0 13.0 0.00 0.00 0.00 74 1005.5
20260505025000 73 162 9.0 13.0 0.00 0.00 0.00 75 1005.5
20260505024501 73 145 11.0 15.0 0.00 0.00 0.00 75 1005.5
20260505024000 73 0 0.0 15.0 0.00 0.00 0.00 74 1005.5
20260505023500 73 0 0.0 14.0 0.00 0.00 0.00 74 1005.5
20260505023001 73 0 0.0 14.0 0.00 0.00 0.00 74 1005.4
20260505022500 73 0 0.0 15.0 0.00 0.00 0.00 74 1005.4
20260505022000 73 159 15.0 17.0 0.00 0.00 0.00 74 1005.4
20260505021000 73 0 0.0 14.0 0.00 0.00 0.00 74 1005.5
20260505020500 73 0 0.0 12.0 0.00 0.00 0.00 74 1005.6
20260505020000 74 155 11.0 13.0 0.00 0.00 0.00 73 1005.6
20260505015000 74 0 0.0 15.0 0.00 0.00 0.00 72 1005.3
20260505014500 74 0 0.0 15.0 0.00 0.00 0.00 71 1005.2
20260505014000 75 162 10.0 15.0 0.00 0.00 0.00 71 1005.3
20260505013500 75 175 11.0 15.0 0.00 0.00 0.00 71 1005.2
20260505013000 75 166 8.0 13.0 0.00 0.00 0.00 71 1005.3
20260505012501 75 171 10.0 15.0 0.00 0.00 0.00 70 1005.2
20260505012001 75 165 11.0 15.0 0.00 0.00 0.00 70 1005.2
20260505011500 75 171 9.0 13.0 0.00 0.00 0.00 69 1005.3
20260505011000 75 169 12.0 13.0 0.00 0.00 0.00 69 1005.3
20260505010500 75 171 11.0 15.0 0.00 0.00 0.00 68 1005.3
20260505010000 76 163 11.0 15.0 0.00 0.00 0.00 68 1005.3
20260505005001 76 177 11.0 17.0 0.00 0.00 0.00 66 1005.4
20260505004001 77 190 10.0 14.0 0.00 0.00 0.00 65 1005.4
20260505003500 77 175 10.0 15.0 0.00 0.00 0.00 64 1005.4
20260505003000 77 180 11.0 15.0 0.00 0.00 0.00 63 1005.4
20260505002000 78 179 8.0 15.0 0.00 0.00 0.00 63 1005.3
20260505001500 78 207 11.0 17.0 0.00 0.00 0.00 62 1005.4
20260505001000 78 170 14.0 17.0 0.00 0.00 0.00 61 1005.4
20260505000500 78 183 13.0 17.0 0.00 0.00 0.00 61 1005.4
20260505000000 78 180 15.0 19.0 0.00 0.00 0.00 60 1005.4
20260504235500 79 176 17.0 19.0 0.00 0.00 0.00 59 1005.5
20260504235000 79 205 15.0 22.0 0.00 0.00 0.00 59 1005.4
20260504234500 79 181 14.0 22.0 0.00 0.00 0.00 59 1005.3
20260504234000 79 187 13.0 20.0 0.00 0.00 0.00 59 1005.5
20260504233501 79 183 13.0 19.0 0.00 0.00 0.00 59 1005.5
20260504233000 79 192 11.0 20.0 0.00 0.00 0.00 59 1005.7
20260504232500 79 199 17.0 20.0 0.00 0.00 0.00 58 1005.6
20260504231531 80 182 13.0 22.0 0.00 0.00 0.00 59 1005.6
20260504230500 80 180 16.0 19.0 0.00 0.00 0.00 57 1005.4
20260504230000 80 183 12.0 21.0 0.00 0.00 0.00 57 1005.6
20260504225500 80 192 12.0 28.0 0.00 0.00 0.00 57 1005.7
20260504224500 82 199 18.0 23.0 0.00 0.00 0.00 55 1005.8
20260504224000 81 196 15.0 24.0 0.00 0.00 0.00 55 1005.7
20260504223501 82 203 22.0 24.0 0.00 0.00 0.00 54 1005.7
20260504223000 82 190 15.0 23.0 0.00 0.00 0.00 55 1005.9
20260504222500 81 193 14.0 23.0 0.00 0.00 0.00 54 1005.9
20260504222000 81 198 14.0 25.0 0.00 0.00 0.00 55 1006.1
20260504221500 81 188 17.0 25.0 0.00 0.00 0.00 54 1005.9
20260504221000 82 187 17.0 25.0 0.00 0.00 0.00 54 1005.9
20260504220030 82 172 18.0 22.0 0.00 0.00 0.00 54 1006.1
20260504215500 82 194 17.0 22.0 0.00 0.00 0.00 53 1006.0
20260504215000 82 197 20.0 23.0 0.00 0.00 0.00 53 1006.1
20260504214500 81 161 21.0 25.0 0.00 0.00 0.00 53 1006.1
20260504214000 82 178 25.0 25.0 0.00 0.00 0.00 53 1006.1
20260504213530 82 171 11.0 21.0 0.00 0.00 0.00 55 1006.5
20260504213000 82 177 21.0 21.0 0.00 0.00 0.00 54 1006.4
20260504212500 81 189 12.0 21.0 0.00 0.00 0.00 55 1006.7
20260504212000 81 180 15.0 21.0 0.00 0.00 0.00 55 1006.8
20260504210500 80 206 16.0 22.0 0.00 0.00 0.00 55 1007.0
20260504210031 81 181 15.0 22.0 0.00 0.00 0.00 55 1007.1
20260504205502 81 185 13.0 21.0 0.00 0.00 0.00 55 1007.1
20260504205030 80 164 19.0 20.0 0.00 0.00 0.00 55 1007.2
20260504204500 80 188 14.0 23.0 0.00 0.00 0.00 55 1007.3
20260504204031 80 201 18.0 23.0 0.00 0.00 0.00 55 1007.5
20260504203500 80 197 15.0 23.0 0.00 0.00 0.00 56 1007.6
20260504202500 80 178 13.0 22.0 0.00 0.00 0.00 55 1007.9
20260504202000 80 209 18.0 22.0 0.00 0.00 0.00 55 1007.8
20260504201500 80 198 22.0 24.0 0.00 0.00 0.00 55 1007.8
20260504201030 80 173 12.0 24.0 0.00 0.00 0.00 55 1008.0
20260504200000 80 192 14.0 27.0 0.00 0.00 0.00 56 1008.1
20260504195500 79 209 21.0 24.0 0.00 0.00 0.00 56 1008.1
20260504195000 80 194 16.0 22.0 0.00 0.00 0.00 54 1008.5
20260504194000 79 221 22.0 23.0 0.00 0.00 0.00 56 1008.6
20260504193530 78 189 11.0 23.0 0.00 0.00 0.00 56 1008.7
20260504193030 79 212 15.0 28.0 0.00 0.00 0.00 56 1008.7
20260504192530 79 218 14.0 28.0 0.00 0.00 0.00 57 1009.0
20260504192000 78 199 12.0 21.0 0.00 0.00 0.00 56 1008.8
20260504191500 78 194 16.0 21.0 0.00 0.00 0.00 57 1008.8
20260504191030 78 192 10.0 25.0 0.00 0.00 0.00 58 1008.9
20260504190531 78 166 19.0 25.0 0.00 0.00 0.00 56 1009.0
20260504190001 77 165 13.0 20.0 0.00 0.00 0.00 58 1009.2
20260504185500 77 165 20.0 25.0 0.00 0.00 0.00 56 1009.3
20260504185030 78 186 11.0 30.0 0.00 0.00 0.00 58 1009.6
20260504184500 77 179 12.0 30.0 0.00 0.00 0.00 58 1009.4
20260504184000 77 184 16.0 22.0 0.00 0.00 0.00 56 1009.4
20260504183501 77 199 16.0 22.0 0.00 0.00 0.00 57 1009.6